Theta_e
327 327 327 328 328 328 329 329 329 328 328 328 328 328 328 327 327 327 327 327 328 328 327 327 327 327 327 328 327 327 326 318 312 310 307 309 319 329 331 335 337 338 329 312 308 307 305 306 307 309 311 312 309 309 310 309 307 311 304 302 299 301 299 302 300 301 301 301 300 297 301 304 300 299 301 302 302 304 303 304 306 306 311 316 317 317 320 322
327 327 327 327 328 328 328 328 328 328 328 328 327 327 327 327 327 327 327 327 328 327 328 328 327 327 326 325 327 326 321 318 307 306 306 319 329 332 329 335 338 336 322 311 309 306 305 304 305 307 308 307 308 307 306 307 307 307 304 303 300 301 303 303 303 302 301 302 301 300 301 304 303 302 301 302 301 302 302 304 304 307 310 315 317 317 318 321
326 327 326 327 328 328 328 328 328 328 328 327 327 327 327 327 326 326 326 326 326 326 327 327 327 327 327 327 326 325 317 311 306 301 307 331 331 333 333 336 338 331 312 310 310 308 306 306 307 307 305 305 304 305 307 306 307 302 305 300 303 306 301 301 301 301 299 300 300 299 299 299 301 302 302 302 301 301 301 302 303 304 306 310 317 316 318 322
326 326 326 326 327 328 327 328 327 327 327 327 327 327 327 326 326 325 325 325 326 326 327 326 326 326 326 325 327 324 317 307 302 306 308 323 332 336 336 339 338 330 310 308 304 307 306 307 307 309 305 304 303 303 303 304 305 303 303 301 303 303 302 300 299 300 298 299 301 300 298 298 299 302 303 302 301 301 303 305 305 304 306 309 318 317 320 323
326 326 326 326 326 327 327 327 327 327 327 327 327 327 326 325 325 325 324 325 325 325 326 326 326 325 323 324 325 320 310 302 306 305 311 331 338 335 336 338 336 318 310 304 305 305 306 307 307 306 306 302 303 303 302 302 302 305 301 299 299 298 302 298 299 297 297 296 301 299 299 300 301 300 302 303 300 301 304 306 307 307 308 312 316 317 321 323
325 325 325 326 326 327 326 326 326 326 326 326 326 326 325 325 324 324 324 323 324 325 325 324 323 322 324 324 321 316 308 295 305 311 323 331 339 338 336 335 326 307 303 304 305 304 305 305 307 304 303 302 302 300 300 300 300 302 299 298 299 298 300 297 298 296 296 299 299 299 301 300 301 301 301 302 303 303 303 302 304 304 307 316 319 319 321 322
324 324 325 325 325 326 326 326 325 325 326 326 326 325 324 324 323 323 323 323 323 324 325 324 322 321 320 318 316 310 306 310 308 317 325 336 336 335 333 329 320 304 304 304 303 304 305 304 305 304 302 301 300 299 298 301 300 302 300 298 298 298 300 297 298 295 296 299 300 301 300 301 300 299 299 299 305 303 301 300 303 302 313 318 318 319 321 322
324 324 323 324 324 325 325 325 325 325 325 325 325 324 323 323 323 323 323 322 323 321 322 325 320 320 321 317 308 303 305 306 307 313 328 334 326 322 316 309 308 307 305 305 303 303 303 303 303 301 302 299 300 300 299 300 301 301 298 298 297 297 297 296 296 296 296 297 297 298 300 299 300 300 297 300 304 303 300 306 310 312 314 317 319 319 321 323
323 323 322 322 323 323 324 324 325 325 325 324 324 323 323 322 322 322 322 322 322 321 321 325 320 321 322 316 305 300 300 316 309 313 328 322 314 310 312 309 308 306 305 305 304 305 304 302 302 303 299 299 299 301 297 301 298 301 298 298 297 297 297 296 296 296 297 298 298 299 299 298 298 297 298 303 302 300 299 305 310 313 314 315 319 319 321 322
323 323 322 321 322 322 323 323 324 325 325 324 323 322 322 321 321 321 321 322 322 323 324 323 324 324 318 308 306 298 305 310 314 312 319 318 310 309 310 311 307 306 305 303 302 303 303 303 303 303 303 299 300 300 298 299 298 299 298 299 297 295 298 297 298 297 297 298 297 299 298 298 297 297 300 301 300 297 302 304 307 312 312 316 317 319 320 321
323 322 322 321 321 322 323 323 323 324 324 323 322 321 321 320 320 320 321 321 322 322 323 323 324 322 314 309 298 298 311 316 314 309 316 315 311 308 308 308 308 307 308 305 304 304 305 305 305 302 303 300 300 297 299 298 299 299 298 298 297 298 298 298 299 297 299 298 297 300 297 298 299 298 300 302 298 298 301 304 306 308 310 316 317 318 319 320
323 323 322 321 321 322 323 323 323 324 323 322 321 320 320 319 319 320 320 320 321 322 323 324 324 320 312 304 299 302 309 315 313 310 314 313 311 311 312 310 307 310 307 305 306 310 306 306 305 301 298 303 298 298 298 298 300 298 300 297 296 297 299 299 299 299 299 299 298 300 298 297 297 298 303 298 297 299 301 304 306 307 308 311 314 317 318 319
322 322 322 321 321 321 322 323 323 323 322 321 320 320 319 319 319 319 319 319 320 321 323 323 322 316 307 298 302 307 314 314 311 310 310 312 309 309 310 310 309 307 309 307 307 313 306 305 305 301 301 301 298 297 299 300 296 298 299 298 295 297 297 297 297 297 298 299 297 298 294 298 299 301 299 297 297 298 300 302 304 307 308 308 310 313 316 318
321 321 321 320 320 321 322 323 323 322 321 320 320 319 319 318 318 319 319 319 321 322 322 321 319 313 305 299 305 311 311 314 310 311 310 310 310 309 308 309 309 308 311 308 308 307 305 304 306 302 304 301 299 300 300 298 298 297 296 299 297 295 295 296 297 297 297 297 297 298 295 298 299 300 299 298 297 298 301 303 303 303 304 306 307 309 312 316
320 320 320 320 320 320 321 322 322 321 320 320 320 318 318 317 318 318 319 320 320 321 321 318 316 308 299 301 306 313 320 312 310 312 311 309 308 307 305 308 308 308 308 309 308 306 306 309 307 302 299 298 301 299 297 298 296 296 295 293 295 294 296 296 297 296 297 297 298 298 295 298 299 298 297 298 299 299 300 302 302 301 302 303 304 305 307 311
320 319 320 320 320 320 320 320 320 320 319 319 318 318 318 317 318 318 318 319 321 321 319 314 312 306 298 296 304 322 311 308 308 311 310 310 312 309 308 306 307 307 307 304 305 306 307 308 302 299 298 298 298 298 296 296 296 295 295 296 294 294 295 294 296 296 296 298 299 298 296 297 298 300 297 296 299 299 300 301 302 302 302 303 303 303 304 306
319 319 319 319 320 319 319 319 319 319 319 318 318 317 317 317 317 318 319 320 319 318 317 308 310 304 294 301 311 306 306 309 308 311 309 308 310 307 307 307 306 304 306 305 307 308 305 303 298 300 301 298 297 299 294 293 292 294 296 294 296 292 293 293 295 296 298 298 296 297 295 297 299 300 299 297 297 298 300 301 302 303 303 304 305 304 303 304
319 319 319 319 319 319 318 318 319 318 318 317 316 316 315 317 319 318 316 315 315 316 312 310 311 299 296 301 298 302 308 307 309 308 310 307 307 307 307 303 302 305 305 303 306 303 303 300 300 298 298 297 296 296 292 288 292 292 292 292 291 290 292 292 294 294 296 296 297 297 295 297 299 301 300 300 298 298 300 302 302 303 303 303 303 303 303 305
319 319 319 319 319 318 317 318 318 318 317 317 317 318 318 319 317 316 312 309 301 298 296 299 297 290 290 297 302 305 308 310 310 309 305 307 307 307 306 306 306 303 302 301 299 301 302 301 301 297 294 294 295 296 294 296 295 295 295 294 294 291 291 292 293 293 295 296 295 296 295 297 299 300 301 302 299 299 300 301 300 301 301 302 303 304 304 305
319 319 319 319 318 318 317 318 318 318 318 315 313 313 311 304 304 302 307 303 300 298 298 302 299 298 296 300 304 306 309 309 306 306 309 308 306 306 304 304 306 304 300 298 300 300 302 296 293 293 296 296 297 297 296 294 296 295 296 295 293 294 294 292 293 295 294 295 296 297 297 297 298 299 301 303 301 300 300 300 302 303 304 305 305 304 305 306
318 319 319 318 318 317 318 318 318 317 317 314 312 306 298 299 294 293 301 301 302 298 299 302 299 300 300 303 305 305 304 302 306 306 309 309 308 306 301 303 300 297 298 298 300 300 299 295 295 297 297 297 296 293 294 294 295 295 293 293 291 294 293 293 294 294 295 294 296 293 295 296 298 300 301 302 301 300 301 302 303 304 305 305 306 306 307 308
318 318 318 318 318 317 318 317 317 317 316 314 310 301 299 304 302 306 302 293 298 302 299 300 300 304 305 306 307 304 309 302 303 306 309 308 305 302 299 300 298 296 296 297 298 297 296 294 297 297 293 293 292 293 294 295 294 294 294 293 293 292 293 292 293 294 295 294 296 295 295 297 299 301 302 302 301 303 304 304 305 305 305 305 305 305 306 307
318 318 318 318 317 318 317 317 317 316 313 309 305 302 303 305 307 307 307 300 296 298 299 298 300 301 303 305 307 306 301 299 299 303 306 307 302 301 300 298 297 297 295 296 294 295 292 296 297 294 294 294 292 292 294 294 296 295 294 292 291 295 291 290 292 294 293 294 296 296 294 297 300 301 301 303 303 303 303 302 302 303 303 304 305 306 306 305
317 318 318 317 317 317 317 317 317 313 309 309 307 304 306 309 308 301 306 295 293 296 301 300 300 303 303 302 307 304 301 298 302 300 306 303 301 302 300 299 295 295 295 295 296 294 294 292 291 293 295 296 293 293 294 294 292 294 297 296 294 290 292 293 292 292 291 291 292 294 295 296 299 298 299 299 294 293 297 298 298 300 302 303 305 303 304 302
317 317 317 317 316 317 316 317 310 308 310 309 306 310 307 307 304 306 301 293 295 296 299 300 307 306 305 309 306 302 299 299 302 304 306 305 298 298 298 297 298 294 296 295 296 296 293 291 291 292 294 296 295 291 295 297 293 293 295 296 295 296 293 291 293 294 294 294 292 292 290 291 295 296 296 299 297 297 296 296 300 302 302 301 299 301 304 305
317 317 317 316 317 317 317 307 307 309 306 304 308 310 307 306 307 303 300 291 287 292 297 293 304 297 313 303 307 303 301 297 301 303 304 306 305 301 296 296 296 294 293 294 295 296 293 289 292 294 294 296 296 294 296 297 294 291 293 296 295 295 296 295 294 295 290 288 292 290 289 288 297 296 298 296 296 298 298 296 299 301 301 299 300 302 302 303
317 316 317 316 317 316 307 302 309 309 301 305 311 307 305 308 308 301 296 286 285 293 292 297 297 298 309 303 305 302 290 294 303 304 304 306 302 303 298 295 294 294 295 297 293 292 291 290 291 295 295 295 294 292 295 296 293 291 293 293 296 296 296 296 296 296 292 292 292 291 293 288 289 296 298 293 294 297 299 299 299 300 298 298 299 300 301 303
317 317 316 317 316 314 308 307 306 304 305 306 310 308 307 309 306 302 294 278 279 297 292 292 298 307 306 302 304 298 297 302 296 300 302 305 302 300 299 295 296 295 293 295 288 295 292 290 293 293 295 292 293 295 297 298 295 293 288 294 296 297 297 296 296 292 292 291 289 291 295 288 288 294 294 293 295 297 298 300 301 298 299 299 300 301 302 302
316 316 316 316 315 312 311 308 306 304 308 307 308 307 307 306 303 296 287 279 292 291 306 293 306 303 300 300 298 297 298 299 294 299 303 302 302 300 296 296 295 294 293 294 293 291 294 294 294 296 294 292 293 288 292 297 295 291 291 293 292 293 294 296 293 293 291 289 286 290 291 287 288 297 296 294 293 295 298 300 299 299 299 300 301 303 304 303
316 316 316 315 311 309 309 310 307 308 304 307 308 307 304 301 296 287 280 276 295 286 293 295 297 295 299 295 294 297 296 297 297 299 300 299 300 300 295 298 297 296 296 297 297 293 293 294 294 293 294 295 291 291 292 293 295 293 295 296 295 295 294 293 293 291 289 285 287 286 286 287 285 294 294 295 296 297 298 298 298 300 301 300 301 302 304 304
316 316 316 313 308 308 308 303 308 306 308 308 308 308 303 299 290 282 275 286 297 292 293 292 291 300 295 293 291 292 297 295 297 298 296 299 297 298 297 296 299 297 294 295 293 295 294 295 295 294 291 293 296 294 293 293 294 297 296 294 293 292 294 292 290 291 285 284 284 284 286 287 283 290 296 297 294 292 295 297 298 300 300 300 302 301 302 302
316 316 315 312 311 310 305 303 308 307 308 310 310 303 296 285 288 280 279 295 285 289 290 290 291 296 295 297 295 293 294 295 297 297 295 295 294 293 294 292 294 287 287 289 289 294 292 293 293 294 294 293 296 294 292 293 294 295 295 294 289 286 287 283 287 282 283 284 285 285 286 285 285 292 296 295 295 295 294 296 299 299 299 300 301 302 300 302
316 315 314 312 311 309 310 310 308 307 308 309 306 299 291 284 276 285 284 287 285 292 289 295 291 293 295 294 292 294 296 293 296 295 298 295 295 295 297 295 297 294 286 291 290 290 291 293 293 294 295 295 297 292 289 289 293 293 292 291 287 283 281 280 282 281 282 284 284 285 288 283 291 294 297 297 299 296 295 296 298 298 299 299 301 301 300 303
315 314 311 310 311 312 311 309 309 308 306 306 299 293 290 281 280 292 287 287 288 288 293 292 292 294 294 291 293 295 291 293 295 294 296 293 294 291 293 294 294 293 295 290 288 289 284 285 291 293 290 297 293 295 294 294 292 293 297 294 289 288 283 278 281 279 282 284 283 285 283 286 287 292 294 296 296 294 295 293 294 295 296 297 298 298 299 301
315 313 311 310 310 308 309 310 309 309 308 302 294 289 281 281 287 286 286 288 289 290 290 294 293 292 290 291 292 296 295 291 296 294 293 292 290 292 291 292 293 296 296 288 291 289 289 288 289 291 291 291 295 294 295 295 292 292 291 293 289 288 293 285 283 284 281 282 282 282 285 291 293 297 296 297 295 295 295 294 294 295 297 297 298 301 303 304
312 309 310 307 308 308 309 309 309 309 305 298 290 286 283 287 285 292 289 293 290 289 290 294 293 290 289 290 291 294 295 294 293 294 292 294 294 292 295 294 293 295 293 290 291 286 287 286 291 294 292 293 294 292 294 296 287 291 289 287 290 293 288 279 279 280 279 282 282 288 287 292 295 295 298 297 293 296 294 294 293 295 297 297 299 303 304 305
307 308 304 306 308 308 309 310 309 307 304 296 289 284 290 292 296 294 293 292 292 293 291 286 287 289 287 286 289 291 292 297 292 293 289 294 291 294 293 294 297 294 296 294 288 295 288 286 289 291 291 293 292 291 294 291 293 291 286 291 290 293 295 289 282 281 282 280 283 283 284 287 287 286 297 294 294 295 296 295 295 296 296 296 301 305 305 306
305 306 306 305 307 308 310 311 309 305 301 293 287 290 294 291 293 294 295 293 294 294 291 289 288 293 287 288 287 290 292 292 290 291 290 291 289 298 294 294 295 296 295 294 293 292 295 284 288 288 291 294 292 294 294 294 293 294 293 297 291 285 285 285 286 278 279 278 282 283 283 284 288 290 294 293 293 297 296 295 295 296 297 299 302 304 305 305
306 304 298 305 308 309 310 312 308 302 296 289 288 287 293 294 294 294 295 296 298 294 290 291 289 289 292 288 290 291 291 288 291 290 289 290 287 295 294 296 294 295 295 293 292 291 295 288 285 291 291 292 294 294 288 291 294 293 292 291 291 291 290 285 285 286 286 282 279 282 280 284 290 291 293 294 296 298 297 295 295 298 299 300 302 304 303 303
302 299 296 305 308 309 310 309 303 299 293 286 288 290 296 292 292 293 296 296 293 293 291 291 291 288 289 290 291 288 291 291 290 290 291 292 290 293 293 297 295 293 293 292 294 296 289 292 285 289 292 291 288 291 290 292 288 288 289 288 292 288 291 291 287 285 285 282 281 282 281 285 293 294 294 295 296 295 295 296 298 299 300 300 302 304 304 305
306 300 297 306 308 310 310 304 296 292 290 293 294 292 294 292 291 293 295 295 295 292 292 293 291 289 290 288 288 292 289 290 291 290 291 291 291 288 294 295 297 292 293 295 293 292 288 286 286 286 287 287 291 291 290 293 294 291 290 288 291 286 285 283 282 284 282 284 279 278 280 288 296 290 294 295 296 295 294 296 298 298 298 298 300 301 304 305
300 292 294 307 309 309 303 293 293 296 292 290 290 293 292 296 294 293 294 293 298 293 294 295 292 293 291 291 292 291 290 289 290 291 292 290 293 294 293 297 296 295 293 289 291 293 293 290 288 285 288 289 290 291 288 288 289 291 290 291 295 292 291 287 282 283 282 281 282 283 279 285 296 291 292 294 293 292 290 291 294 296 298 297 298 298 297 299
298 295 304 307 310 307 299 292 293 292 290 294 294 293 293 293 293 294 293 294 294 294 294 294 292 291 291 293 292 292 292 289 291 289 293 293 294 296 296 295 296 295 296 290 292 289 292 288 286 284 287 289 290 289 289 287 291 292 291 291 292 289 292 291 289 287 286 280 282 283 279 286 295 292 289 288 287 287 288 288 292 294 295 296 297 299 298 297
298 296 298 306 310 306 295 286 286 289 290 293 294 293 292 293 293 291 293 295 295 293 293 292 291 293 293 294 293 291 294 287 291 292 291 293 292 293 293 297 297 294 294 291 291 295 288 287 288 283 283 285 287 290 290 292 292 290 291 292 292 292 290 287 287 287 286 283 285 284 279 286 294 293 291 290 291 292 294 293 291 293 296 299 301 302 301 301
297 299 300 301 306 303 292 294 290 289 289 288 291 290 293 292 293 292 294 293 296 294 295 292 294 294 292 295 294 295 296 294 288 293 294 291 293 291 294 296 298 296 296 297 297 297 290 288 287 282 279 277 277 279 282 285 288 291 286 287 291 292 290 287 285 285 284 284 284 284 285 291 290 292 293 295 293 295 296 296 293 294 298 302 302 302 301 301
293 286 294 296 300 298 299 297 296 293 290 289 288 290 293 291 291 291 293 295 294 295 295 295 292 296 293 293 291 291 292 294 292 290 291 290 291 291 292 295 297 298 294 295 295 296 287 287 289 288 286 284 286 289 293 294 290 286 289 289 289 291 292 292 289 286 283 286 282 287 289 291 288 292 292 295 292 295 297 296 295 295 295 296 299 300 300 300
294 289 289 286 295 296 294 297 295 295 290 293 287 291 288 291 292 292 295 293 294 295 294 294 294 292 291 293 291 291 293 292 289 292 291 292 290 291 290 293 295 294 292 294 296 293 287 286 288 290 290 291 293 292 293 294 291 291 290 288 290 290 289 288 287 286 290 285 282 289 291 288 291 293 294 296 296 296 297 299 299 299 300 300 300 298 295 297
286 290 295 296 289 286 287 289 295 293 295 294 289 293 290 290 290 288 293 294 295 295 293 292 293 294 293 293 293 288 291 291 290 288 291 291 291 291 291 294 292 293 293 294 296 294 289 287 290 290 289 293 293 292 293 294 293 293 292 291 289 290 289 286 288 292 291 286 285 291 291 289 291 294 295 297 298 297 298 298 298 299 299 298 296 295 296 297
291 289 292 296 289 291 292 295 295 293 292 293 292 291 289 290 289 292 292 291 293 293 296 289 290 294 294 295 293 290 290 285 285 291 287 288 289 288 287 289 293 294 295 292 293 292 290 288 291 291 288 291 290 291 291 293 291 291 292 292 291 290 289 291 291 293 292 290 293 293 293 293 295 295 296 297 299 299 297 296 296 297 298 298 297 297 298 298
285 286 286 292 292 291 294 294 293 292 289 292 288 289 291 290 290 291 292 293 289 293 296 292 293 294 295 294 293 291 292 293 292 288 290 289 285 290 290 292 289 290 293 291 293 292 291 287 290 288 286 287 290 290 290 291 291 288 290 292 291 291 290 291 292 293 293 292 293 293 292 292 297 298 297 298 297 295 296 296 297 299 300 298 297 297 299 299
291 292 293 289 287 289 292 294 292 290 289 291 288 290 290 291 291 293 292 294 294 293 294 292 296 294 294 294 293 293 295 295 296 294 293 293 289 292 291 289 294 287 290 289 289 290 291 287 288 287 285 285 287 286 287 287 287 286 286 288 289 289 287 289 289 293 292 289 291 290 289 290 296 299 297 296 295 295 296 298 297 298 299 298 298 299 299 300
294 296 294 291 287 291 289 292 293 290 286 290 291 292 291 291 293 294 291 295 294 296 297 297 295 293 291 292 292 294 297 297 299 298 296 296 297 296 296 295 294 291 288 289 291 290 289 288 286 286 284 284 287 287 285 285 285 282 283 287 290 290 291 292 293 294 294 295 289 287 289 295 296 296 294 293 295 296 296 298 299 299 300 299 299 300 300 300
Wind_Speed
23 22 21 21 23 21 20 19 18 18 18 17 16 15 15 15 16 16 15 12 14 12 11 12 11 10 9 9 7 4 3 1 3 4 5 8 5 4 7 5 6 7 6 1 1 1 3 1 4 1 3 4 1 3 1 1 1 2 5 4 5 2 5 7 6 7 3 7 8 9 11 9 8 5 4 3 3 1 3 5 2 0 4 2 4 2 1 3
23 23 22 21 21 21 21 18 20 18 18 17 16 16 16 16 16 16 15 13 14 14 13 12 12 11 10 7 5 5 5 1 1 6 16 2 8 8 8 6 9 9 6 4 7 7 6 5 2 2 4 4 1 0 0 2 2 4 2 3 5 3 2 4 4 5 3 5 10 9 8 6 7 12 6 7 7 6 5 6 3 4 5 4 4 2 4 6
22 21 22 21 20 20 19 19 19 19 18 17 16 17 16 15 15 16 15 14 14 14 13 13 13 12 11 8 6 5 2 2 1 10 13 5 8 9 8 9 8 10 9 5 6 8 9 5 5 5 1 2 2 3 3 2 2 0 4 6 3 3 3 2 2 6 1 3 11 9 7 4 4 5 6 5 7 4 8 8 6 8 10 10 7 4 6 8
21 21 22 21 20 20 21 19 19 18 18 18 17 16 15 14 14 15 15 15 14 14 13 12 12 12 10 8 8 4 1 4 6 7 0 5 10 6 9 10 11 8 5 0 1 5 1 2 4 6 2 4 1 2 4 2 4 3 3 5 3 5 5 3 2 2 2 2 7 8 6 4 4 3 8 6 6 8 8 8 10 12 11 11 8 8 10 12
20 21 21 21 20 21 21 20 20 19 18 17 17 17 15 15 15 15 16 15 15 13 13 12 11 11 11 4 2 3 4 3 5 3 1 7 7 8 8 10 11 7 3 4 4 1 4 6 6 2 2 4 0 2 2 2 3 4 1 5 1 2 3 3 3 3 2 2 6 9 12 8 6 2 6 9 8 5 8 10 11 7 7 11 11 10 12 14
21 20 21 21 22 21 21 20 20 20 19 18 17 17 16 16 16 16 16 16 15 13 12 13 11 11 9 3 3 2 3 6 1 2 4 6 3 8 6 7 9 7 6 5 4 3 6 5 8 6 4 3 6 7 3 0 3 6 1 1 1 2 3 2 4 2 3 5 8 10 5 7 9 5 3 7 11 3 4 5 3 2 4 6 9 12 13 15
21 20 21 21 20 21 21 20 22 21 21 19 17 17 18 18 16 16 16 16 16 14 12 13 13 11 9 6 1 1 8 5 1 3 4 3 7 9 8 7 7 7 6 6 5 6 8 7 10 6 4 0 1 2 1 2 1 4 4 3 3 2 5 1 3 3 1 6 7 3 6 7 8 7 3 7 8 5 4 3 2 2 4 9 12 12 15 17
21 20 20 21 21 21 21 21 20 20 20 19 16 18 18 18 17 15 15 16 17 15 13 13 14 12 12 7 5 5 4 9 4 2 3 6 7 8 8 5 6 5 7 9 9 8 5 8 11 4 6 7 3 6 3 4 1 3 3 3 2 1 3 2 3 4 2 2 3 4 8 2 3 0 4 8 10 5 3 2 3 4 5 6 9 12 11 12
21 21 20 20 19 18 18 19 19 19 19 20 19 18 18 17 16 15 16 15 16 17 16 14 15 16 10 7 2 4 8 3 3 5 5 7 7 6 5 5 3 9 4 2 3 5 8 5 1 6 4 6 3 5 4 6 5 2 3 5 4 4 5 4 6 3 3 2 3 7 4 3 3 1 6 7 3 2 2 3 3 3 5 7 9 11 11 12
22 20 20 20 19 19 18 18 18 19 19 20 19 18 18 16 15 15 15 16 15 15 15 14 15 14 7 12 10 9 5 5 2 4 4 6 7 7 3 2 6 6 6 4 2 5 9 5 8 5 2 4 4 1 2 4 1 5 7 5 5 2 3 1 2 4 2 3 2 5 6 3 2 1 5 4 2 1 3 4 2 4 7 7 7 8 9 10
23 21 20 20 20 20 20 18 17 18 20 22 20 19 18 17 16 15 15 16 16 16 15 15 15 16 9 9 13 10 2 5 2 3 6 6 8 6 7 4 5 6 6 3 5 6 3 4 4 4 2 3 7 2 2 1 5 7 11 10 8 5 6 4 6 4 4 5 2 3 4 2 2 2 5 4 2 2 6 5 5 5 6 6 7 7 7 7
22 21 20 20 20 20 20 18 17 19 22 20 19 17 16 16 16 15 15 15 15 14 13 13 16 9 6 8 11 4 4 1 4 2 5 6 5 2 1 4 7 5 7 7 6 4 3 3 7 3 3 7 5 4 2 3 3 7 3 5 2 1 4 3 4 3 4 3 2 1 4 4 5 8 4 4 2 2 5 5 5 7 6 4 5 5 6 8
23 21 22 21 21 19 19 18 18 18 19 19 18 17 17 16 14 14 14 13 13 11 11 11 8 4 6 9 8 3 2 3 5 6 5 4 6 3 2 3 4 2 2 4 4 4 4 6 6 4 2 1 6 2 7 3 3 3 2 5 5 3 2 1 1 1 2 2 1 2 6 7 13 13 5 3 1 2 3 5 6 5 5 4 4 6 6 6
23 22 22 22 21 19 19 19 19 19 20 19 18 18 17 14 14 14 13 11 11 11 11 10 5 5 5 7 2 1 3 3 5 6 4 3 5 2 3 3 4 3 1 1 2 1 5 1 4 5 1 2 5 4 8 4 2 5 2 3 3 6 4 3 2 4 3 0 1 2 7 3 2 3 2 2 1 3 5 5 5 4 5 5 5 5 7 8
23 22 21 21 21 19 19 20 20 20 19 19 18 18 16 15 14 13 12 10 13 12 10 7 3 5 6 4 2 2 5 3 5 3 5 7 6 5 1 3 6 4 3 4 3 1 2 5 8 3 2 2 6 7 7 4 2 2 7 5 1 6 3 2 4 3 4 2 1 4 6 9 3 4 3 2 2 4 6 5 4 4 5 5 5 7 7 8
24 22 21 21 20 20 20 20 21 20 19 19 19 17 14 14 13 12 12 10 13 12 5 7 5 5 3 7 2 5 3 6 5 3 1 2 5 3 4 7 5 5 1 4 1 2 2 2 4 2 5 3 4 6 7 6 3 0 3 4 6 2 3 3 1 2 4 1 2 6 4 1 3 3 2 1 2 4 6 6 6 6 6 6 6 6 6 6
24 22 21 21 21 21 21 20 19 19 19 19 18 17 12 13 11 12 11 12 7 4 5 4 5 2 6 1 4 6 5 2 2 3 1 2 1 9 8 5 4 6 5 4 1 1 4 2 2 1 2 4 1 6 8 7 5 6 1 2 1 7 6 5 4 1 3 3 9 3 4 7 2 2 1 3 1 0 3 4 5 5 5 5 4 5 6 7
24 23 22 21 22 22 21 20 19 18 20 19 17 16 14 12 13 13 9 5 3 3 2 0 3 3 8 3 6 7 3 4 3 4 2 1 2 6 4 4 3 8 8 8 2 2 3 3 3 4 4 4 4 9 9 10 10 8 6 3 4 2 3 1 5 2 1 0 6 5 8 12 7 3 3 5 2 2 6 6 5 5 5 4 5 6 7 7
24 24 23 22 22 22 21 20 19 21 22 20 20 18 16 13 7 5 7 5 8 7 6 9 9 12 5 12 1 4 1 3 5 3 5 6 1 2 5 4 6 11 6 6 3 2 1 4 0 5 9 7 10 11 11 2 7 12 13 5 3 7 6 5 2 2 3 8 8 9 10 11 12 12 9 6 4 4 7 6 6 7 7 7 7 7 6 7
24 23 23 22 22 21 22 22 23 24 24 18 17 13 10 8 6 7 3 3 4 4 4 11 7 3 3 0 8 2 2 2 7 1 3 2 6 5 5 2 4 4 7 7 5 3 2 7 8 9 9 8 9 7 2 2 3 5 4 3 3 5 2 2 2 3 2 2 10 9 10 10 10 10 11 8 3 6 8 10 9 8 7 7 7 8 9 9
24 24 23 22 22 22 22 23 23 23 21 14 17 14 10 17 18 13 12 4 2 1 2 12 8 2 2 3 4 12 12 2 3 5 4 1 3 12 2 3 7 6 2 3 4 2 2 7 9 6 6 9 6 6 7 7 2 8 6 5 3 3 4 2 2 2 0 4 2 2 5 12 14 12 12 11 7 12 11 11 11 11 9 7 8 8 9 10
24 24 23 23 22 22 23 25 24 21 16 10 14 5 3 5 3 2 12 9 2 1 1 4 0 3 1 1 1 2 3 6 5 5 2 3 8 8 4 5 9 10 3 4 4 4 7 11 5 5 5 9 6 4 2 5 6 2 5 4 3 4 2 2 2 1 1 1 4 2 6 10 11 10 10 10 11 10 9 10 11 8 8 7 6 8 8 6
24 24 24 23 23 22 22 22 22 20 12 12 11 2 3 1 3 3 2 7 6 2 2 6 7 3 3 2 3 4 5 6 10 6 6 4 7 3 10 8 8 5 3 6 10 6 6 9 3 5 8 10 4 2 6 6 3 4 4 5 6 3 6 4 2 2 2 2 2 2 6 9 10 9 11 11 11 8 5 7 9 6 9 10 9 6 6 8
24 24 24 23 23 23 22 22 18 11 11 12 10 5 1 0 1 1 4 6 6 2 1 1 1 1 7 9 6 7 6 2 6 12 2 5 10 3 8 8 9 6 8 10 8 10 4 3 3 7 7 12 10 4 9 6 6 2 3 3 3 3 2 2 4 2 1 1 1 4 7 11 7 8 8 5 1 5 9 8 10 9 10 9 5 7 8 10
25 25 25 24 24 24 21 20 12 11 11 10 10 5 3 2 1 3 6 4 3 3 2 2 2 4 3 2 0 6 2 4 1 3 4 6 8 6 6 1 5 7 7 3 4 3 1 1 2 7 4 2 7 6 7 7 4 2 4 3 2 4 7 3 6 6 3 3 4 2 4 7 1 4 7 1 2 5 3 4 9 7 5 5 8 10 8 10
25 25 25 25 25 23 23 13 11 12 12 12 4 4 4 4 3 2 2 4 8 3 2 7 4 6 4 1 3 1 6 7 1 1 2 1 4 3 4 3 1 9 7 8 6 1 1 1 3 7 9 6 6 6 5 4 5 3 4 4 2 5 7 8 7 3 3 3 2 3 7 5 2 2 2 1 4 8 3 6 9 5 4 4 6 5 5 6
27 25 25 25 25 26 15 7 12 14 12 10 9 4 6 3 3 1 4 4 6 7 9 2 1 2 1 2 6 5 10 7 2 3 2 3 4 3 8 5 3 5 2 3 2 5 4 4 4 2 6 7 6 6 6 8 4 6 2 3 6 9 10 8 8 3 2 3 1 0 1 6 7 6 2 2 5 8 7 7 9 5 3 5 4 4 6 5
27 27 26 25 27 17 3 11 17 17 9 1 4 7 5 3 2 2 1 6 5 7 7 4 2 2 0 1 2 5 4 9 8 5 2 1 1 3 2 12 10 9 4 6 10 3 3 6 5 9 5 5 8 1 7 7 5 1 1 2 5 4 4 7 5 3 2 1 3 4 0 3 7 2 2 2 4 7 9 7 4 2 3 3 5 5 6 6
27 27 27 24 22 11 10 9 15 15 5 3 5 6 4 4 2 4 2 4 2 4 3 8 2 3 3 2 4 3 2 6 0 3 1 2 5 2 6 4 5 8 5 2 3 2 2 2 4 2 8 8 2 2 2 3 5 1 4 6 7 6 6 3 3 3 2 2 6 5 1 4 11 3 4 2 3 7 8 8 3 2 2 3 4 4 5 4
27 28 27 25 14 9 4 7 9 2 3 4 5 6 5 3 5 5 5 6 6 5 1 2 5 9 7 12 3 2 5 2 2 3 2 4 3 4 6 1 8 9 4 5 7 2 2 1 3 1 3 3 6 5 1 3 4 11 7 11 7 6 3 2 4 1 1 4 4 5 2 3 5 2 5 5 6 6 5 3 1 1 2 2 2 3 3 3
27 28 26 22 11 6 9 7 7 3 4 6 5 6 5 4 4 5 6 3 5 3 2 4 5 6 15 17 11 1 3 1 3 7 7 2 3 5 6 5 4 5 4 3 4 2 2 1 2 1 1 4 2 8 7 2 6 7 4 6 9 4 1 2 2 1 3 6 3 3 0 3 7 3 4 4 3 3 2 2 2 1 1 2 2 2 2 2
27 28 27 16 9 9 8 6 9 6 6 8 8 6 6 7 2 8 4 3 9 8 7 9 2 9 18 9 5 7 9 3 2 8 12 9 9 10 10 9 8 5 5 9 4 2 3 2 1 3 2 1 5 10 4 2 3 1 7 9 7 3 2 3 2 4 7 5 2 2 2 2 13 11 4 3 6 5 7 5 4 2 3 2 1 2 2 2
28 27 27 12 15 8 4 7 10 8 8 7 6 3 6 8 9 11 5 7 2 7 6 3 9 9 12 11 9 6 3 8 5 3 5 1 8 4 2 1 10 3 8 6 5 4 2 3 1 2 1 4 4 9 5 3 6 5 11 10 7 4 4 5 2 2 4 1 1 1 1 6 7 7 13 16 9 3 4 7 6 5 6 4 3 3 3 3
27 27 15 12 11 8 7 9 8 11 10 6 7 4 2 6 9 5 5 3 2 3 5 6 7 5 18 12 12 13 8 4 9 4 4 7 7 8 8 5 7 4 5 7 10 9 5 4 7 9 5 4 2 3 4 5 11 7 4 6 6 7 4 6 4 6 4 1 2 2 1 4 2 1 3 6 5 2 2 3 3 4 5 5 4 5 5 4
30 21 13 8 3 2 9 10 12 14 8 7 6 10 12 13 8 13 11 9 3 3 5 4 15 12 7 5 2 4 2 5 5 10 6 11 11 10 13 11 7 2 4 12 3 2 5 1 3 4 2 2 5 2 1 8 6 1 1 3 2 4 1 1 1 0 2 2 1 2 5 3 5 6 7 5 6 5 5 5 3 7 4 3 4 4 3 2
23 10 13 8 6 4 7 10 12 11 10 8 9 8 12 13 9 10 8 9 4 8 10 9 6 12 6 4 2 8 2 1 9 6 6 10 9 11 11 6 9 11 9 8 6 6 3 5 3 0 1 0 1 2 1 2 7 5 4 3 1 4 10 6 2 1 1 1 4 3 5 6 5 9 13 2 1 4 3 4 2 6 2 1 4 3 3 3
12 13 8 9 7 7 7 9 10 9 5 7 10 11 14 8 2 7 3 10 7 19 15 14 8 9 12 10 9 11 6 5 6 7 8 4 3 10 10 8 10 11 10 7 3 2 8 4 2 1 3 1 1 1 1 5 3 7 3 5 3 2 2 2 2 1 0 3 2 3 6 7 1 6 3 2 4 9 6 7 6 3 1 4 4 4 4 5
12 11 10 10 8 7 7 9 13 8 5 7 11 17 9 8 3 5 5 13 13 10 10 10 2 1 9 8 9 11 5 7 10 5 7 12 4 10 8 5 5 10 9 4 4 4 4 4 2 2 1 1 1 2 4 2 1 2 0 5 4 3 4 1 2 1 3 2 3 4 3 5 6 8 1 1 6 10 7 6 4 5 5 7 6 6 5 3
11 11 9 7 7 9 8 9 10 8 7 7 10 14 7 4 4 8 8 10 6 9 11 1 6 4 3 10 6 6 10 9 10 9 8 7 8 7 16 8 5 3 6 4 4 3 1 3 1 1 2 0 2 2 7 4 1 3 2 3 2 2 1 5 3 0 0 3 0 2 2 5 8 7 5 11 8 9 6 6 7 9 8 6 6 6 6 6
13 8 4 8 9 10 9 11 10 8 7 12 14 8 3 5 2 2 7 16 7 8 5 8 3 7 5 3 10 10 7 3 11 7 5 4 7 3 7 5 8 9 6 1 2 4 4 1 3 2 2 1 5 6 8 10 9 4 5 5 2 2 2 2 2 1 2 2 3 3 4 3 3 6 8 12 11 3 3 6 4 4 4 3 5 6 7 7
3 5 5 8 11 12 9 9 10 12 12 9 5 3 2 5 4 3 4 6 5 6 4 7 8 9 7 7 4 3 6 7 8 8 6 5 12 6 9 11 8 11 6 2 4 4 3 3 5 5 3 7 2 4 3 3 2 4 8 9 9 6 4 4 4 3 0 2 3 3 6 4 2 3 9 9 2 1 4 2 4 5 6 6 4 4 5 6
6 6 7 13 14 16 14 14 8 10 5 11 10 5 4 3 7 10 5 1 3 4 4 6 2 5 7 9 10 8 7 5 4 7 7 8 10 6 3 4 6 14 12 10 10 1 3 4 6 6 4 3 1 2 1 2 1 1 2 5 6 5 3 4 7 5 2 1 2 0 2 6 2 2 3 3 0 2 1 3 5 5 6 5 3 4 2 1
6 3 6 15 15 19 13 9 7 5 5 3 6 3 3 1 2 2 7 3 5 1 3 4 9 8 3 4 4 7 14 7 13 11 8 9 2 5 1 6 9 11 7 2 6 4 3 4 5 2 3 2 2 2 1 0 1 2 5 1 4 10 9 5 1 4 6 3 1 2 2 6 1 1 3 4 1 3 3 4 7 6 5 5 3 4 3 4
5 7 7 10 14 12 14 12 13 10 12 4 6 3 3 1 3 8 7 8 5 5 7 6 3 3 6 4 8 12 11 4 5 5 4 3 5 3 6 7 17 9 12 11 12 10 6 3 7 4 2 1 1 0 1 1 0 4 3 4 1 5 7 3 5 1 1 7 6 5 7 8 3 1 2 2 2 5 6 7 7 6 5 5 4 4 4 5
6 3 3 7 10 7 13 8 17 18 14 6 10 7 5 1 2 2 5 9 1 4 6 3 3 6 5 3 5 3 11 10 3 8 2 2 3 2 1 7 12 11 1 2 4 9 5 5 9 6 7 7 7 8 10 9 11 4 1 2 7 10 10 6 5 4 6 3 5 4 10 6 2 2 3 3 2 6 6 3 4 7 6 5 3 3 5 5
5 7 4 7 8 5 4 4 3 8 10 11 10 10 7 4 0 2 2 3 1 2 1 7 2 5 6 10 6 8 11 4 2 4 9 5 2 0 0 3 7 7 1 4 8 10 3 2 9 12 14 13 14 14 7 8 7 7 12 15 14 12 9 3 4 3 9 4 7 12 14 9 3 4 6 7 4 9 6 5 6 7 8 7 4 3 4 4
2 4 8 9 3 6 6 2 5 8 13 14 9 9 11 9 4 2 4 5 5 6 3 1 6 10 7 13 10 9 12 11 2 5 10 10 0 1 2 2 2 4 3 3 8 6 2 4 11 12 15 15 14 12 9 16 14 14 14 11 11 12 13 12 11 12 8 7 8 11 14 15 13 8 9 9 8 7 5 5 6 6 7 7 5 3 3 4
2 1 2 0 4 11 13 12 11 11 8 16 3 7 12 11 6 7 2 3 2 3 7 2 6 14 16 16 11 7 8 6 6 6 4 1 6 1 5 3 3 1 2 3 3 4 5 8 11 12 15 15 3 6 8 9 12 11 15 13 15 15 14 15 16 16 9 10 14 18 19 19 16 14 12 9 9 9 12 9 3 1 1 3 4 6 6 6
2 1 2 2 3 1 9 4 12 6 8 14 4 8 12 15 14 8 5 6 1 4 6 7 12 12 15 15 12 7 12 7 9 7 5 6 8 4 2 4 0 2 3 2 4 1 2 5 5 8 13 12 4 5 3 10 6 4 10 12 14 15 17 19 18 15 14 14 16 20 17 16 16 10 16 11 10 7 2 4 2 4 8 8 5 6 6 7
1 2 2 2 4 4 7 10 11 12 11 15 9 9 10 14 16 5 2 7 6 7 2 8 12 12 11 13 15 10 14 16 17 11 3 10 2 2 6 4 6 1 1 5 5 3 6 2 5 5 4 10 6 2 1 4 9 10 3 8 11 12 11 14 14 15 14 13 14 18 18 15 11 8 10 4 4 5 3 4 7 8 5 7 8 8 8 8
1 2 2 4 3 1 5 9 11 11 8 9 10 12 11 14 15 12 5 1 7 7 7 12 8 7 6 10 15 16 15 16 13 15 18 17 12 10 9 5 11 9 6 3 2 1 4 2 2 3 4 8 5 10 6 3 1 2 5 8 12 14 14 13 15 17 15 19 22 19 15 12 18 7 8 7 6 7 7 7 5 5 8 9 9 9 9 10
1 2 1 1 3 3 6 7 8 9 10 11 13 12 9 13 6 10 6 3 2 1 5 8 11 11 6 10 14 17 12 9 5 7 17 13 9 14 5 8 16 16 10 13 6 7 7 4 4 4 5 10 2 8 8 5 3 1 6 12 18 18 18 18 16 16 14 16 14 11 15 19 4 9 7 7 9 8 7 8 8 8 9 10 10 11 11 10
Wind_Direction
169 172 173 171 175 175 176 171 162 159 159 161 164 168 171 170 169 168 167 161 156 155 157 160 155 143 140 128 152 181 220 286 7 334 301 239 168 176 166 121 150 133 142 200 152 196 238 226 183 25 164 205 21 211 117 109 42 215 207 190 189 104 201 161 177 185 16 149 161 180 191 177 153 170 149 178 155 31 121 210 115 221 245 41 84 27 61 133
170 172 172 171 171 174 175 175 167 161 159 162 164 172 174 175 172 167 167 159 161 158 158 156 150 142 140 147 169 162 198 138 147 300 255 167 206 189 207 146 136 149 120 241 226 225 229 202 176 229 162 184 352 228 244 152 252 210 118 222 195 175 91 173 145 149 148 150 162 174 190 218 164 161 170 189 174 177 176 209 200 201 203 158 156 132 177 165
172 171 171 171 170 170 172 176 173 167 161 161 164 170 172 172 166 168 166 162 160 161 160 157 154 146 137 150 186 173 176 65 254 254 267 251 237 184 169 158 140 150 167 223 234 219 232 241 161 157 350 180 9 173 244 109 249 18 219 190 187 164 71 149 151 152 322 116 139 159 182 247 112 179 142 223 161 181 209 190 198 219 200 202 153 149 168 175
173 171 170 171 172 171 175 174 173 170 168 165 167 170 168 167 165 166 166 163 160 162 157 155 155 142 138 147 197 124 194 200 229 247 208 302 318 246 168 137 147 180 151 88 276 222 51 90 157 203 136 219 111 313 205 118 222 135 216 195 138 151 140 159 201 110 86 328 154 151 126 203 162 161 180 164 159 208 224 221 202 203 204 184 151 157 164 176
173 172 170 171 174 174 174 172 169 169 168 167 166 166 161 160 169 166 168 164 163 162 156 149 141 129 126 201 134 114 186 232 228 223 274 333 279 229 190 144 142 160 188 124 113 85 214 198 168 65 197 191 228 177 262 91 338 147 359 8 63 150 110 106 140 82 113 308 143 138 155 181 113 126 207 177 206 185 214 218 218 228 201 159 162 163 166 180
174 174 169 169 174 174 171 170 170 169 168 167 166 163 159 160 169 167 167 170 168 160 154 156 150 128 120 107 98 126 243 191 181 265 359 320 110 168 163 120 125 133 121 132 163 182 181 195 187 185 188 209 184 192 133 83 2 193 129 14 49 358 96 116 147 132 177 148 154 166 154 104 171 170 202 221 219 65 60 36 349 335 60 106 132 148 170 183
175 173 170 169 173 173 169 170 171 168 170 166 166 162 158 157 164 167 168 168 169 153 151 154 136 126 120 90 73 294 234 282 71 249 314 111 89 96 97 114 132 134 159 143 161 168 206 183 203 188 165 184 275 295 135 163 211 287 146 139 103 333 96 66 118 122 222 175 160 112 111 170 171 194 143 223 225 85 90 38 19 73 107 132 145 173 177 185
172 172 171 168 170 171 168 167 167 168 167 166 151 147 151 161 164 166 164 166 166 166 168 154 141 138 124 115 101 218 198 254 160 265 221 118 95 94 101 93 143 152 177 192 165 187 171 178 195 101 205 204 148 185 149 152 281 202 131 196 114 47 59 97 109 154 167 74 64 135 163 159 188 107 128 235 225 180 138 92 101 104 131 152 162 174 184 191
172 172 171 170 166 163 164 164 164 164 166 165 156 153 151 155 164 165 165 162 166 173 177 153 151 147 138 98 212 160 227 233 141 171 163 135 122 107 141 137 197 162 179 190 242 167 167 222 121 196 206 206 163 169 204 184 215 179 87 123 128 88 88 100 116 133 150 117 171 156 166 63 120 31 249 239 154 45 65 141 96 126 151 174 184 182 183 190
173 171 171 168 165 161 162 164 165 163 164 160 158 159 158 155 164 165 165 165 165 168 166 159 153 156 127 147 203 206 238 116 127 167 156 134 125 121 93 104 153 150 144 198 120 161 200 181 198 169 110 69 171 159 47 261 97 98 112 101 102 88 113 352 141 128 118 135 205 179 158 110 116 255 226 90 90 354 181 181 144 185 186 187 187 189 196 195
171 169 167 165 162 161 162 163 161 159 163 161 159 159 162 163 166 166 168 168 167 171 167 167 159 157 164 222 184 200 150 143 160 155 149 140 125 145 178 165 178 161 192 125 214 207 203 149 110 111 303 192 147 109 259 98 116 114 126 101 74 97 80 104 102 114 175 129 250 197 116 70 130 177 251 114 50 233 202 184 187 203 203 188 195 194 198 207
167 165 162 159 157 161 160 162 157 161 164 160 157 158 164 165 166 168 169 168 169 170 168 161 165 170 204 216 211 202 173 77 140 141 131 145 127 141 112 158 175 179 177 185 223 231 205 168 161 156 207 142 167 115 125 173 115 140 192 120 53 123 113 27 117 103 292 122 196 228 135 207 178 229 182 103 16 145 206 197 197 206 210 197 196 206 204 207
166 162 161 157 158 161 163 158 155 158 158 153 153 159 161 161 164 167 169 167 170 171 165 160 153 213 216 197 232 73 144 117 119 120 102 74 102 78 78 108 132 121 208 228 212 188 159 155 195 123 356 224 132 192 117 104 74 178 53 112 114 155 167 65 312 37 236 84 115 227 224 219 208 216 113 141 39 119 181 209 204 209 205 206 200 212 218 206
162 160 161 160 159 162 159 154 155 158 156 150 154 156 155 156 164 167 167 166 165 166 162 141 150 177 233 222 64 352 130 111 121 120 126 162 130 102 119 81 89 95 339 149 38 90 131 218 94 93 40 99 133 206 142 89 247 172 150 239 188 166 191 73 351 353 185 74 193 245 242 221 112 214 91 113 188 227 218 200 200 211 215 210 210 217 223 218
158 160 160 159 158 157 155 155 157 156 153 151 150 153 148 159 160 160 162 155 161 158 142 109 153 180 216 232 53 68 129 135 159 167 159 161 138 104 88 127 67 53 77 82 117 106 139 154 127 142 82 295 123 149 113 121 58 84 151 190 93 221 131 105 72 345 215 132 260 207 251 251 158 148 99 44 190 206 237 216 196 210 222 221 215 222 228 230
159 160 159 158 157 154 154 151 153 151 149 135 135 136 140 154 154 155 153 158 152 140 144 144 183 245 181 222 146 119 171 172 189 110 198 293 164 133 132 110 126 96 129 62 73 144 73 66 81 97 121 62 193 152 137 134 163 271 261 134 185 213 152 174 146 14 353 117 160 241 259 66 231 50 97 51 128 184 228 237 232 225 228 229 226 224 230 232
159 159 158 157 155 153 152 148 146 150 137 134 128 125 141 146 142 148 146 135 127 125 192 172 154 231 217 12 107 198 185 147 55 113 107 322 53 138 128 102 113 91 90 119 129 194 13 100 269 147 4 163 214 164 150 189 156 189 349 187 69 198 162 206 77 211 354 253 193 205 247 239 44 199 180 175 226 257 229 236 228 227 226 225 229 232 232 233
159 158 158 157 155 155 154 147 148 143 131 134 129 136 144 144 134 101 84 102 141 158 187 275 189 156 249 117 201 186 95 127 171 120 64 5 212 136 105 120 87 124 129 110 17 133 317 123 282 168 135 157 173 190 187 192 175 167 182 188 193 301 261 351 170 132 239 162 228 189 244 255 246 217 201 198 187 259 266 261 264 255 240 229 230 235 237 238
158 156 158 157 156 157 151 145 143 137 141 131 131 137 137 128 122 154 139 164 158 137 185 183 178 193 212 174 177 97 131 101 103 136 150 137 138 110 82 79 127 137 142 163 161 157 90 91 212 155 189 174 194 199 211 77 170 186 186 181 120 176 192 203 77 63 265 187 215 206 223 237 242 247 240 213 186 240 267 273 263 249 241 241 235 234 232 234
155 155 156 156 155 153 149 144 145 146 143 142 145 144 135 139 163 141 195 253 244 152 335 150 201 31 51 50 140 64 122 234 140 5 131 267 149 135 67 117 54 45 144 181 144 159 348 170 189 196 192 178 191 214 337 90 162 78 66 112 157 180 123 58 107 40 264 237 229 228 245 266 265 262 264 261 191 245 253 256 252 248 237 228 226 227 230 230
154 154 154 154 153 153 148 147 148 151 154 158 157 157 168 171 148 172 166 174 101 307 353 167 164 133 340 114 123 150 130 56 12 139 154 104 262 146 148 142 153 161 157 14 129 94 199 204 208 189 174 179 151 96 116 84 112 165 161 178 165 246 181 71 98 61 59 244 191 73 264 260 258 257 257 263 259 259 245 247 244 244 238 231 226 235 229 236
154 154 152 152 152 153 153 153 152 154 157 169 177 194 348 177 334 21 136 144 219 68 281 115 103 115 280 282 258 331 73 108 130 134 126 200 177 190 183 178 169 175 103 138 111 147 196 213 187 119 105 90 92 107 47 129 131 104 186 177 165 196 43 138 101 116 56 210 247 101 274 265 254 249 247 238 240 248 239 237 248 243 235 228 226 238 244 241
154 153 151 151 151 152 155 155 156 151 161 170 194 268 238 33 302 284 114 84 108 305 132 164 164 159 121 345 246 268 152 148 158 197 177 213 151 251 141 165 174 114 144 178 174 161 197 221 120 116 135 124 85 131 114 91 80 151 134 172 206 119 176 201 147 142 46 307 347 349 299 278 266 241 240 237 232 248 256 268 266 252 246 237 230 230 244 248
154 152 150 149 149 151 154 156 146 136 180 184 192 222 4 109 313 259 149 139 134 194 98 262 4 144 166 154 199 176 152 166 138 182 102 173 168 148 151 162 129 142 178 190 183 181 183 27 21 150 170 160 156 168 159 171 183 304 241 176 146 155 220 4 134 130 162 149 283 266 272 274 237 245 239 179 300 282 268 265 255 243 235 247 276 279 246 248
153 151 149 148 149 150 152 143 150 173 168 193 236 243 197 197 123 273 120 92 93 131 308 347 163 247 185 58 355 194 130 67 327 100 138 197 139 148 161 49 150 190 160 134 107 164 174 67 140 137 146 121 137 169 199 174 196 177 247 234 188 180 145 103 114 154 188 211 65 353 277 261 111 238 243 279 297 242 193 249 255 240 222 213 237 241 236 234
152 152 149 150 149 147 134 143 168 162 166 195 206 197 176 176 258 204 131 86 172 133 56 186 133 198 130 197 62 157 132 164 350 58 102 292 340 128 108 132 315 184 142 157 172 167 87 110 223 162 156 150 169 188 180 200 180 173 206 170 152 153 133 133 141 182 212 239 73 326 234 265 93 286 171 0 300 280 208 221 255 246 224 231 242 248 238 233
151 151 152 150 151 140 145 183 154 143 161 227 220 152 175 192 207 224 168 54 212 164 164 58 231 181 19 125 144 141 172 180 133 96 121 357 185 340 170 140 96 41 113 134 90 211 126 131 142 109 122 155 157 198 193 183 133 211 58 169 127 137 148 165 157 214 38 40 139 228 337 270 290 256 37 351 292 278 272 226 230 236 241 244 252 258 262 257
152 152 151 155 150 152 121 120 147 173 180 56 118 147 159 184 163 290 240 122 229 120 164 204 252 347 271 152 256 210 345 119 131 190 17 351 264 107 317 174 174 150 169 159 202 67 150 149 192 155 172 157 194 167 125 196 175 227 182 266 131 134 111 127 151 126 50 298 225 155 331 274 246 265 115 2 286 260 260 256 192 184 234 262 272 274 273 274
154 151 151 149 145 118 122 147 162 173 192 115 131 117 126 136 208 139 168 197 58 102 344 126 259 135 76 151 125 20 146 351 319 90 314 61 30 234 180 161 92 105 43 308 213 133 330 199 199 161 159 189 74 4 333 187 156 229 141 100 98 91 77 88 120 119 158 199 246 153 359 252 274 203 227 79 275 262 254 248 149 221 228 273 289 290 287 287
154 153 149 141 111 113 104 134 176 97 97 135 140 127 115 147 134 180 122 238 138 161 46 82 198 170 157 154 143 38 161 24 58 129 75 145 84 54 23 329 125 125 110 48 61 30 314 359 264 78 227 49 122 53 98 358 69 133 185 108 92 65 68 83 54 54 169 243 235 52 338 283 292 216 219 194 220 233 239 277 315 206 199 211 244 278 298 303
155 152 147 143 150 140 133 154 175 138 140 131 154 140 151 48 173 138 183 206 87 73 83 161 163 136 161 164 175 348 80 30 135 162 133 162 88 71 149 100 43 76 85 75 65 21 61 50 143 57 24 136 110 91 39 70 125 154 148 128 111 67 115 98 84 324 221 242 77 341 342 293 219 256 238 271 329 259 245 208 171 184 10 343 352 354 332 309
155 151 144 151 130 151 167 173 157 139 159 152 153 147 177 131 1 194 183 106 191 171 188 173 257 170 176 164 67 154 143 82 159 174 158 168 153 161 191 173 171 134 183 174 155 158 86 119 25 22 266 214 160 102 73 101 261 211 147 153 158 151 156 191 185 216 212 240 84 23 256 242 237 241 319 259 272 248 217 237 248 270 289 325 342 16 335 311
154 148 154 143 147 178 191 123 132 149 146 169 143 172 178 156 186 200 138 185 213 130 181 101 160 182 154 140 162 136 348 167 179 181 88 29 157 200 24 137 187 159 178 162 107 152 139 137 328 18 148 227 243 147 138 175 208 194 169 163 163 158 172 210 183 352 334 17 31 72 84 266 293 281 238 251 252 231 205 234 244 251 260 285 321 339 322 312
150 150 148 165 162 166 138 130 129 137 141 147 153 118 57 181 210 160 129 217 117 350 89 128 103 95 161 179 166 165 148 356 173 168 194 155 173 173 204 262 191 156 65 145 169 177 157 241 207 160 184 121 207 304 183 163 162 203 7 178 187 173 161 188 173 197 206 146 91 238 190 233 190 190 29 276 346 276 304 276 278 273 272 281 300 293 278 273
151 152 139 147 89 54 141 136 140 149 134 150 152 177 171 200 199 168 185 175 148 110 96 149 135 147 180 12 67 234 36 149 215 139 179 160 189 188 182 190 217 76 131 150 242 161 212 78 27 358 327 7 184 279 337 99 52 16 228 28 148 212 185 187 62 17 121 145 157 188 232 271 230 359 268 221 267 264 238 272 262 266 238 240 266 249 232 196
145 148 148 158 151 178 154 144 146 152 154 159 164 184 203 192 188 177 192 111 102 135 123 97 99 155 159 139 340 209 292 124 183 180 185 198 188 192 188 183 180 201 165 178 136 175 40 208 23 349 159 349 3 312 269 293 180 185 135 205 167 15 99 113 84 66 348 5 245 143 266 260 262 267 266 135 330 267 176 232 238 253 222 194 237 199 180 169
145 138 155 163 165 162 159 148 147 148 173 184 176 194 207 207 14 104 120 146 147 131 138 143 191 168 176 186 177 197 181 110 165 186 189 131 234 209 187 213 186 190 210 136 180 292 171 117 17 346 148 34 325 304 13 57 307 104 221 173 143 212 105 126 186 99 45 235 247 111 235 261 326 286 60 307 221 247 231 235 229 242 164 225 211 176 170 168
142 153 139 161 165 153 155 152 137 140 154 185 208 213 199 212 278 101 96 103 139 160 152 164 130 13 177 155 185 175 192 200 171 209 177 173 233 165 186 181 186 197 185 314 164 197 123 104 111 332 0 314 106 279 100 32 38 297 160 142 168 166 204 257 118 193 174 224 260 207 270 271 233 239 59 246 219 250 215 208 212 221 204 214 194 162 151 127
138 135 148 164 142 152 160 150 131 131 150 187 216 221 193 213 102 152 180 128 139 146 164 221 129 226 148 183 129 137 159 195 146 195 163 203 218 173 189 161 179 198 181 155 148 114 331 141 111 74 138 122 293 231 189 167 31 76 171 131 334 285 330 160 201 48 202 236 83 255 118 258 180 222 208 248 238 234 229 169 208 207 197 197 175 154 160 170
146 137 159 153 148 142 166 142 120 143 179 202 206 224 78 131 197 35 185 135 168 170 182 153 223 132 180 158 150 166 198 194 166 190 237 146 210 15 196 176 173 177 146 344 100 173 159 311 147 124 303 176 182 207 211 169 163 136 174 168 159 38 296 5 36 165 216 200 205 276 259 235 189 206 204 225 233 199 223 219 212 198 200 192 174 168 169 178
149 105 129 155 153 143 141 121 139 177 198 236 289 57 316 172 137 164 199 350 103 339 150 149 164 162 157 130 202 141 156 167 180 187 208 194 196 191 209 193 144 146 125 51 104 190 111 216 163 126 136 219 191 26 328 297 256 190 167 183 178 134 142 174 213 80 1 203 215 180 258 264 207 133 207 224 253 155 230 245 227 223 209 203 182 207 176 172
154 142 165 160 160 148 146 148 188 186 213 205 197 154 172 86 144 167 159 336 43 126 344 92 12 113 143 172 153 158 145 173 183 195 215 212 211 254 2 144 156 147 156 181 184 299 117 96 103 168 200 173 342 15 331 320 350 231 308 214 172 190 133 186 208 185 93 40 50 355 346 271 103 139 241 265 27 250 282 277 251 241 247 234 211 205 203 275
167 73 105 154 171 151 149 160 165 179 211 188 53 39 15 40 100 96 144 250 154 231 118 160 176 133 314 119 146 160 163 179 172 198 188 217 238 188 168 159 127 157 148 99 64 213 87 109 93 36 47 315 327 249 184 257 352 276 255 247 168 198 201 212 259 131 167 122 177 195 247 263 60 146 237 251 264 297 259 240 254 265 257 252 200 179 190 201
108 130 135 184 180 165 150 168 178 199 199 96 181 164 4 47 156 148 195 194 171 178 160 142 47 320 139 149 149 170 178 165 245 230 229 136 202 51 157 160 155 167 171 187 178 186 166 216 128 131 99 106 329 111 225 89 188 228 225 165 245 48 70 91 102 31 207 200 186 186 239 260 141 242 242 252 233 244 240 216 213 249 264 259 227 181 191 200
109 42 83 166 198 190 179 195 187 189 181 150 168 207 190 120 297 249 180 180 80 149 123 188 154 151 98 144 122 111 184 195 141 218 208 163 190 93 223 170 182 182 187 11 23 152 193 151 146 159 163 172 189 196 200 205 204 177 61 147 178 184 150 143 181 167 226 169 161 215 242 235 82 279 258 224 228 257 229 208 197 224 251 254 240 203 202 198
153 135 142 159 201 204 270 40 240 189 159 163 187 205 182 186 54 229 232 147 55 112 14 117 13 117 121 142 141 164 193 243 143 169 182 193 149 12 298 248 191 194 282 119 148 155 160 144 191 183 192 204 207 209 201 89 86 176 206 178 192 199 181 160 51 123 213 183 183 221 231 250 159 201 211 225 199 226 212 198 213 214 233 247 252 223 201 208
353 133 157 153 127 245 209 183 183 177 187 168 190 171 192 197 133 156 228 190 210 170 100 154 150 155 188 162 167 183 190 179 39 134 193 165 346 73 17 184 215 11 21 125 164 117 101 177 203 201 217 219 216 211 146 162 172 197 189 185 180 178 182 186 188 212 186 90 234 239 237 250 232 175 207 207 206 230 243 232 219 199 208 216 203 192 202 193
111 325 44 145 142 177 187 209 197 186 176 163 187 144 193 180 185 172 119 298 76 259 158 339 210 186 169 176 146 165 172 186 162 194 110 71 120 183 94 21 172 343 5 104 246 158 170 206 208 201 218 220 50 128 159 188 197 197 199 175 173 178 178 189 211 222 139 200 225 230 222 234 242 186 205 197 203 206 214 217 179 161 196 194 192 197 194 202
32 26 80 341 160 309 199 94 162 145 153 179 159 172 186 189 199 185 165 154 189 221 237 179 199 193 177 174 166 156 158 164 224 202 165 164 158 136 103 67 228 98 141 90 130 233 139 231 188 187 217 222 137 158 166 178 178 150 191 179 182 172 184 195 210 208 188 216 227 243 238 233 242 176 210 203 209 226 218 63 130 180 205 202 202 218 210 196
225 115 149 32 60 91 150 129 158 161 182 180 184 198 188 192 198 158 292 171 170 215 134 219 185 186 177 178 184 187 186 194 191 177 126 118 61 195 175 179 141 38 198 158 157 252 187 227 113 135 214 237 194 126 154 210 162 190 122 168 167 180 196 210 218 220 219 246 252 250 251 261 255 164 206 138 96 88 110 194 204 217 205 185 206 217 218 212
43 349 336 133 114 90 120 150 160 173 178 186 207 189 191 194 200 188 194 290 212 178 173 208 161 124 165 187 198 206 194 203 202 173 167 159 175 192 163 226 161 149 172 160 117 194 181 217 55 122 205 238 174 181 166 95 56 131 141 165 176 177 198 207 216 210 199 215 229 241 255 257 257 135 166 162 152 164 193 210 219 222 216 208 210 219 219 221
40 298 16 343 125 156 152 154 160 157 202 197 198 182 190 193 173 165 202 207 191 313 215 169 145 148 188 197 211 211 198 196 188 163 175 182 185 179 164 154 167 160 171 183 180 169 182 154 161 167 201 231 153 176 133 132 96 246 213 196 189 198 200 206 214 216 211 212 223 222 229 237 102 134 149 198 189 202 201 211 215 230 223 208 210 217 220 224